[[{"header":{"parameterUnit":"m.s-1","parameterCategory":1,"la1":30.2991,"la2":30.254,"lo1":-89.0895,"lo2":-89.0444,"dy":0.0017,"dx":0.0017,"nx":28,"ny":28,"refTime":"2024-03-30T03:00:00:Z","depth":0,"parameterNumber":2,"parameterNumberName":"U-component_of_WINDS"},"data":[0,0,0,0,0,0,0,0,0,0,0,0,0,0,0,0,0,0,0,0,0,0,0,0,0,0,0,0,0,0,0,0,0,0,0,0,0,0,0,0,0,0,0,0,0,0,0,0,0,0,0,0,0,0,0,0,0,0,-1.4355,-1.4355,0,-1.4338,-1.4338,-1.4338,-1.4305,-1.4304,-1.4304,-1.4303,-1.4288,-1.4288,-1.4288,0,0,0,0,0,0,0,0,0,0,0,0,0,-1.4361,-1.4361,-1.4355,-1.4355,-1.4355,-1.4338,-1.4338,-1.4338,-1.4305,-1.4304,-1.4304,-1.4303,-1.4288,-1.4288,-1.4288,0,0,0,0,0,0,0,0,0,0,0,0,0,-1.4352,-1.4361,-1.4355,-1.4336,-1.4334,-1.4338,-1.4338,-1.4338,-1.4305,-1.4304,-1.4303,-1.4303,-1.4288,-1.4288,-1.4288,-1.431,0,0,-1.4289,-1.4289,0,0,0,0,0,0,0,0,-1.4353,-1.4352,-1.4339,-1.4338,-1.4336,-1.4323,-1.4334,-1.4328,-1.4306,-1.4317,-1.4303,-1.4302,-1.43,-1.43,-1.4299,-1.4309,-1.4308,-1.4289,-1.4289,-1.429,-1.429,0,0,0,0,0,0,0,-1.4354,-1.4353,-1.4348,-1.4339,-1.4337,-1.4329,-1.4327,-1.4333,-1.4314,-1.4315,-1.4313,-1.4311,-1.4299,-1.4298,-1.4298,-1.4308,-1.4289,-1.4289,-1.429,-1.429,-1.4335,-1.4336,0,0,0,0,0,0,-1.4357,-1.4354,-1.4349,-1.4348,-1.4342,-1.433,-1.4328,-1.4328,-1.4314,-1.4311,-1.4312,-1.431,-1.4298,-1.4298,-1.4297,-1.4321,-1.429,-1.429,-1.429,-1.4334,-1.4335,-1.4336,0,0,0,0,0,0,-1.4357,-1.4356,-1.435,-1.435,-1.4349,-1.4331,-1.4332,-1.4328,-1.4327,-1.4312,-1.4308,-1.4315,-1.4298,-1.4297,-1.4307,-1.432,-1.429,-1.429,-1.4333,-1.4334,-1.4336,-1.4369,0,0,0,0,0,0,-1.4357,-1.4357,-1.4364,-1.435,-1.4349,-1.4359,-1.4332,-1.4328,-1.4328,-1.4324,-1.4313,-1.431,-1.4297,-1.4306,-1.4307,-1.432,-1.429,-1.4331,-1.4333,-1.4335,-1.4367,-1.4372,-1.4376,0,0,0,0,0,-1.4357,-1.4375,-1.4365,-1.4364,-1.4358,-1.436,-1.4359,-1.4342,-1.4329,-1.4336,-1.4326,-1.4311,-1.4319,-1.4308,-1.4308,-1.4321,-1.433,-1.4333,-1.4335,-1.4365,-1.4371,-1.4376,0,0,0,0,0,0,-1.4392,-1.4373,-1.4361,-1.4375,-1.4369,-1.4354,-1.4363,-1.4349,-1.4348,-1.4345,-1.4325,-1.4323,-1.4335,-1.4329,-1.4317,-1.4341,-1.4322,-1.4325,-1.4345,-1.435,-1.4355,-1.4356,-1.4291,0,0,0,0,0,-1.44,-1.4403,-1.4387,-1.44,-1.4398,-1.4381,-1.4381,-1.4369,-1.4363,-1.436,-1.4351,-1.4346,-1.4347,-1.4348,-1.4349,-1.4366,-1.4363,-1.4375,-1.438,-1.4384,-1.4386,-1.4395,-1.44,-1.4344,-1.4344,-1.4344,0,0,-1.4419,-1.4409,-1.4412,-1.4407,-1.4401,-1.4404,-1.4379,-1.4384,-1.4387,-1.4361,-1.4369,-1.4363,-1.4355,-1.4369,-1.4374,-1.4364,-1.4401,-1.4387,-1.439,-1.439,-1.4398,-1.4403,-1.4408,-1.4345,-1.4345,-1.4345,0,0,-1.4455,-1.4448,-1.4458,-1.4452,-1.4443,-1.4432,-1.4435,-1.4422,-1.4416,-1.4424,-1.4405,-1.4408,-1.4411,-1.4406,-1.4404,-1.4439,-1.4424,-1.4439,-1.4463,-1.4472,-1.4476,-1.448,-1.4492,-1.4497,-1.4442,-1.4442,-1.4442,0,-1.448,-1.4484,-1.4465,-1.4471,-1.4469,-1.4446,-1.4456,-1.4452,-1.4444,-1.4443,-1.4432,-1.4435,-1.4428,-1.4441,-1.4449,-1.4448,-1.4451,-1.4441,-1.4477,-1.4481,-1.4484,-1.4495,-1.45,-1.4444,-1.4444,-1.4443,-1.4443,0,-1.4514,-1.4518,-1.4527,-1.4519,-1.4518,-1.4527,-1.451,-1.4511,-1.4499,-1.449,-1.4498,-1.449,-1.4488,-1.449,-1.4478,-1.45,-1.4494,-1.448,-1.4461,-1.4492,-1.4502,-1.4506,-1.4447,-1.4446,-1.4445,-1.4445,0,0,-1.4572,-1.4553,-1.4557,-1.4553,-1.4541,-1.4543,-1.4551,-1.4548,-1.455,-1.4545,-1.4551,-1.4554,-1.4541,-1.4539,-1.4527,-1.4534,-1.4562,-1.4519,-1.4519,-1.4528,-1.4586,-1.4596,-1.4602,-1.4552,-1.4553,-1.4554,-1.4586,0,-1.4605,-1.4616,-1.4599,-1.4614,-1.4617,-1.4594,-1.46,-1.4594,-1.4585,-1.4587,-1.4577,-1.4579,-1.4562,-1.456,-1.4567,-1.4557,-1.4573,-1.4555,-1.4558,-1.4558,-1.456,-1.4607,-1.4618,-1.4649,-1.459,-1.4591,-1.4591,0,-1.4645,-1.4642,-1.4657,-1.4644,-1.4644,-1.465,-1.4646,-1.4648,-1.4641,-1.4634,-1.4631,-1.4617,-1.4624,-1.4604,-1.4614,-1.4601,-1.4602,-1.4597,-1.4598,-1.4598,-1.4577,-1.4608,-1.4659,-1.4664,-1.4598,-1.4597,-1.4597,0,-1.4686,-1.4685,-1.4693,-1.469,-1.4676,-1.468,-1.4675,-1.4666,-1.4666,-1.4663,-1.4662,-1.466,-1.466,-1.4659,-1.4644,-1.4632,-1.4655,-1.4635,-1.465,-1.465,-1.4656,-1.4656,-1.4708,-1.4656,-1.4656,-1.4656,-1.4656,0,-1.4725,-1.4735,-1.4711,-1.4716,-1.4727,-1.4708,-1.4719,-1.4711,-1.4704,-1.4708,-1.4688,-1.4692,-1.4673,-1.4675,-1.4664,-1.4673,-1.4673,-1.4668,-1.4665,-1.4669,-1.467,-1.467,-1.4667,-1.4657,-1.4657,-1.4657,-1.4657,0,-1.4772,-1.4756,-1.4764,-1.4749,-1.4745,-1.4754,-1.4741,-1.4746,-1.4735,-1.4741,-1.4741,-1.4725,-1.4726,-1.4711,-1.471,-1.4703,-1.4717,-1.4711,-1.472,-1.4718,-1.4733,-1.4732,-1.4787,-1.4793,-1.4738,-1.4738,-1.4739,0,-1.4798,-1.4805,-1.479,-1.4791,-1.4786,-1.4787,-1.4786,-1.4768,-1.4768,-1.476,-1.4766,-1.4765,-1.4764,-1.4768,-1.4756,-1.4755,-1.4748,-1.4768,-1.4748,-1.4753,-1.4749,-1.4749,-1.4749,-1.4772,-1.4773,-1.4773,-1.4774,0,-1.4846,-1.4837,-1.4836,-1.4833,-1.4832,-1.4828,-1.4824,-1.4826,-1.4806,-1.4807,-1.4808,-1.4807,-1.4805,-1.4805,-1.4802,-1.4797,-1.4782,-1.478,-1.4783,-1.4788,-1.4793,-1.4791,-1.4731,-1.4779,-1.4778,-1.4778,-1.4777,-1.4777,-1.4883,-1.4888,-1.4878,-1.4878,-1.4872,-1.4868,-1.4871,-1.4861,-1.4861,-1.4858,-1.4847,-1.485,-1.4842,-1.4836,-1.4832,-1.4835,-1.4825,-1.483,-1.4832,-1.4833,-1.4836,-1.4793,-1.4834,-1.4834,-1.4834,-1.4834,-1.4833,0,-1.493,-1.4922,-1.4922,-1.4915,-1.4915,-1.49,-1.4894,-1.4895,-1.4898,-1.4892,-1.489,-1.4892,-1.4891,-1.488,-1.4878,-1.4882,-1.4876,-1.4883,-1.4882,-1.4881,-1.4844,-1.4841,-1.4888,-1.4888,-1.4888,-1.4888,-1.4888,-1.4888,-1.4954,-1.4962,-1.4953,-1.4957,-1.495,-1.4952,-1.4949,-1.4946,-1.4941,-1.4942,-1.4942,-1.4934,-1.4925,-1.4923,-1.4923,-1.4919,-1.492,-1.4929,-1.4923,-1.4889,-1.4884,-1.4879,-1.4876,-1.4929,-1.4929,-1.496,-1.496,-1.4961]},{"header":{"parameterUnit":"m.s-1","parameterCategory":1,"la1":30.2991,"la2":30.254,"lo1":-89.0895,"lo2":-89.0444,"dy":0.0017,"dx":0.0017,"nx":28,"ny":28,"refTime":"2024-03-30T03:00:00:Z","depth":0,"parameterNumber":3,"parameterNumberName":"V-component_of_WINDS"},"data":[0,0,0,0,0,0,0,0,0,0,0,0,0,0,0,0,0,0,0,0,0,0,0,0,0,0,0,0,0,0,0,0,0,0,0,0,0,0,0,0,0,0,0,0,0,0,0,0,0,0,0,0,0,0,0,0,0,0,3.6496,3.6496,0,3.6516,3.6516,3.6517,3.6471,3.647,3.6468,3.6467,3.6484,3.6486,3.6488,0,0,0,0,0,0,0,0,0,0,0,0,0,3.6415,3.6417,3.6496,3.6496,3.6497,3.6516,3.6516,3.6517,3.6471,3.647,3.6468,3.6466,3.6484,3.6486,3.6488,0,0,0,0,0,0,0,0,0,0,0,0,0,3.6444,3.6418,3.6496,3.6476,3.6475,3.6516,3.6516,3.6517,3.6472,3.647,3.6467,3.6465,3.6483,3.6486,3.6488,3.6549,0,0,3.6497,3.6498,0,0,0,0,0,0,0,0,3.6443,3.6447,3.6479,3.6478,3.6476,3.6489,3.6494,3.6527,3.6472,3.6473,3.6467,3.6464,3.6487,3.649,3.6498,3.6549,3.655,3.6497,3.6499,3.65,3.65,0,0,0,0,0,0,0,3.6441,3.6446,3.6504,3.6479,3.6478,3.6466,3.6467,3.65,3.6492,3.6473,3.6469,3.6472,3.6486,3.6496,3.6498,3.655,3.6497,3.6499,3.6501,3.6502,3.6651,3.6654,0,0,0,0,0,0,3.6442,3.6445,3.6503,3.6504,3.6454,3.6469,3.6471,3.6487,3.6491,3.649,3.6474,3.647,3.6492,3.6495,3.6499,3.6569,3.65,3.6502,3.6504,3.6649,3.6652,3.6655,0,0,0,0,0,0,3.644,3.6447,3.6502,3.6474,3.648,3.6473,3.6491,3.6488,3.6498,3.6493,3.6491,3.6486,3.649,3.6495,3.6537,3.6569,3.6503,3.6506,3.6646,3.665,3.6653,3.671,0,0,0,0,0,0,3.6438,3.6447,3.6471,3.6475,3.6482,3.6541,3.6493,3.649,3.6503,3.6498,3.6503,3.6502,3.6489,3.6533,3.6539,3.6571,3.6508,3.6643,3.6648,3.6652,3.6705,3.6715,3.6723,0,0,0,0,0,3.6435,3.6485,3.6472,3.6479,3.6511,3.6543,3.6547,3.6532,3.6506,3.6529,3.6526,3.6501,3.6565,3.6537,3.6544,3.6578,3.6641,3.6647,3.6652,3.6701,3.6713,3.6723,0,0,0,0,0,0,3.6484,3.6485,3.6471,3.6524,3.6534,3.6535,3.6564,3.6545,3.6562,3.6557,3.6537,3.6538,3.6584,3.6585,3.6555,3.6636,3.6598,3.6605,3.6633,3.6645,3.6654,3.6652,3.651,0,0,0,0,0,3.6501,3.6528,3.6527,3.6574,3.658,3.6571,3.6584,3.6573,3.6582,3.6585,3.6585,3.6594,3.6616,3.663,3.665,3.6706,3.6705,3.6732,3.6741,3.6749,3.6754,3.6783,3.6794,3.6672,3.6672,3.6672,0,0,3.6536,3.654,3.6558,3.6584,3.659,3.6617,3.6575,3.6605,3.6625,3.659,3.6629,3.663,3.6638,3.6687,3.6708,3.6689,3.6788,3.6755,3.6761,3.6763,3.679,3.6801,3.6812,3.6675,3.6675,3.6674,0,0,3.6613,3.662,3.6659,3.6666,3.6677,3.6671,3.6681,3.6685,3.6685,3.6724,3.6698,3.6721,3.6759,3.6766,3.6775,3.6856,3.6834,3.6863,3.691,3.6938,3.6948,3.6956,3.6984,3.6995,3.6869,3.6869,3.6869,0,3.6655,3.6696,3.6681,3.6714,3.6725,3.6696,3.6735,3.6743,3.6759,3.6767,3.6746,3.6793,3.6797,3.6847,3.6867,3.6875,3.6884,3.6861,3.6948,3.6956,3.6964,3.699,3.7001,3.6872,3.6872,3.6872,3.6871,0,3.6746,3.6775,3.6805,3.6823,3.6838,3.6874,3.6864,3.6881,3.6868,3.6864,3.6904,3.6908,3.6928,3.6939,3.6926,3.6987,3.6975,3.6951,3.6913,3.6979,3.7003,3.7014,3.6877,3.6876,3.6875,3.6874,0,0,3.6853,3.6863,3.6874,3.6882,3.6892,3.6913,3.6947,3.6968,3.6982,3.6995,3.7022,3.7056,3.7034,3.7044,3.7032,3.7057,3.712,3.703,3.703,3.7045,3.7186,3.7203,3.7215,3.7106,3.7108,3.7109,3.7185,0,3.6929,3.6988,3.6977,3.7035,3.7061,3.7033,3.7063,3.7072,3.7069,3.709,3.7087,3.7111,3.7081,3.7087,3.711,3.7107,3.7147,3.7102,3.713,3.7131,3.7127,3.7228,3.7246,3.7316,3.7194,3.7196,3.7197,0,3.7025,3.7042,3.7103,3.7109,3.7119,3.7146,3.7164,3.7185,3.7194,3.7191,3.7202,3.7186,3.7218,3.7181,3.7226,3.7195,3.7206,3.7206,3.7208,3.7209,3.7167,3.723,3.7339,3.7349,3.7212,3.7211,3.721,0,3.7095,3.7134,3.7175,3.7183,3.7191,3.721,3.7215,3.7222,3.7235,3.7251,3.7259,3.7278,3.7287,3.7302,3.729,3.7264,3.7337,3.7298,3.7333,3.7334,3.7349,3.7348,3.7459,3.7358,3.7358,3.7358,3.7358,0,3.7181,3.7219,3.7207,3.7232,3.7274,3.726,3.7301,3.7302,3.7309,3.7333,3.7311,3.7334,3.7318,3.7339,3.7331,3.7368,3.7373,3.737,3.7367,3.7372,3.7372,3.7377,3.7372,3.7361,3.736,3.7359,3.7359,0,3.7266,3.726,3.7303,3.7308,3.731,3.734,3.7344,3.7367,3.7363,3.7394,3.7401,3.7394,3.7419,3.7409,3.7434,3.7428,3.7476,3.7468,3.7474,3.7471,3.7506,3.7503,3.7624,3.7639,3.753,3.7531,3.7532,0,3.732,3.7349,3.7357,3.7372,3.7379,3.7403,3.7417,3.7404,3.7419,3.7432,3.7453,3.7476,3.7493,3.7533,3.753,3.7549,3.754,3.7581,3.7542,3.7546,3.7539,3.7537,3.7539,3.7588,3.759,3.7591,3.7592,0,3.7416,3.7412,3.7433,3.7454,3.7471,3.7486,3.7499,3.7512,3.75,3.7518,3.7543,3.7556,3.7583,3.7605,3.7622,3.7625,3.7606,3.7604,3.7613,3.7617,3.7619,3.7617,3.7493,3.7601,3.76,3.7599,3.7599,3.7598,3.7487,3.7511,3.7521,3.7545,3.7554,3.7567,3.7588,3.7588,3.7609,3.763,3.7621,3.765,3.7658,3.768,3.7686,3.7707,3.7691,3.7704,3.7707,3.771,3.7714,3.7617,3.771,3.771,3.771,3.771,3.7709,0,3.7581,3.7586,3.7609,3.7628,3.7647,3.7629,3.7643,3.7659,3.7685,3.7695,3.7713,3.7742,3.7763,3.7763,3.7782,3.78,3.7791,3.7805,3.7803,3.7804,3.7728,3.7718,3.7812,3.7812,3.7812,3.7812,3.7812,3.7812,3.7632,3.7672,3.7669,3.7713,3.7717,3.7746,3.7755,3.7767,3.7775,3.7808,3.7826,3.7826,3.7832,3.7852,3.7871,3.787,3.7878,3.7895,3.789,3.782,3.7809,3.78,3.779,3.7897,3.7897,3.7964,3.7964,3.7965]}]]